Weather in Vyshgorodok

Ukraine / Ternopil District     49°46′16″N   25°58′05″E
В апреле 2022 года жителям России запретили посещать сайт meteo.paraplan.net по решению Генеральной прокуратуры. Аудитория сайта уменьшилась в 10 раз. Владельцы сайта не видят смысла в поддержке погодного сервера в таких условиях. Сайт будет закрыт в октябре.
temp.,
°C
wind,
m/s
gust,
m/s
humid.,
%
clouds,
%
prec.,
mm/h
press.,
hPa
HPBL,
m
4 october, tue
tue400:00+7wnw91583100 0.0 1009847
03:00+7wnw91686100 0.0 1011795
06:00+7wnw81589100 0.0 1012771
09:00+8wnw81383100 0.0 1013875
12:00+8wnw71384100 0.2 10141322
15:00+9wnw81182100 0.4 10161198
18:00+9wnw81381100 0.1 1018843
21:00+9w71484100 0.1 1020684
5 october, wed
wed500:00+9w71382100 0.1 1022530
03:00+9w7138184 0.1 1023544
06:00+7w5129054 0.0 1024360
09:00+8w51181100 0.0 1025446
12:00+12w5767100 0.0 1026620
15:00+14w455861 0.0 1025894
18:00+12sw3469100 0.0 102479
21:00+9sw467992 0.0 102582
6 october, thu
thu600:00+9sw4779100 0.0 1026129
03:00+8sw4875100 0.0 1025134
06:00+8wsw3575100 0.0 102581
09:00+10wsw3771100 0.0 1025186
12:00+15wsw5757100 0.0 1025493
15:00+18w5753100 0.0 1024827
18:00+15w487080 0.0 1025205
21:00+12w4118392 0.0 1027216
7 october, fri
fri700:00+12wnw4118797 0.0 1029252
03:00+13nw5108873 0.0 1030430
06:00+9nnw37975 0.0 1031158
09:00+10n24913 0.0 1031166
12:00+14n33590 0.0 1031696
15:00+16nne22480 0.0 10291018
18:00+14ene22585 0.0 102814
21:00+10ese33655 0.0 102828
8 october, sat
sat800:00+9se36745 0.0 102786
03:00+8sse48755 0.0 1026120
06:00+7sse48815 0.0 1024136
09:00+9s410775 0.0 1023248
12:00+15s56595 0.0 1022550
15:00+18sw34545 0.0 1020840
18:00+16wsw22696 0.0 102020
21:00+12w338212 0.0 102124